Simultaneous Nadir Overpasses (SNOs) Predictions

Prediction of SNOs between METOP-B and TERRA Satellite Orbit:

Table of predicted SNOs for the next 14.0 days since TLE Epoch: 10/1/2016
Index Date (METOP-B) Time (METOP-B) Lat,Lon (METOP-B) SZA (METOP-B ) Date (TERRA) Time (TERRA) Lat,Lon (TERRA) SZA (TERRA ) Distance(km) Time Diff (sec)
1 10/02/2016 12:57:22 -81.27,-147.81 91.88 10/02/2016 12:58:03 -81.27,-147.89 91.87 1.58 41
2 10/02/2016 13:48:02 81.28, 19.84 88.18 10/02/2016 13:47:29 81.27, 19.82 88.16 0.94 33
3 10/05/2016 08:31:45 -81.27, -81.51 90.79 10/05/2016 08:32:17 -81.27, -81.38 90.76 2.14 32
4 10/05/2016 09:22:25 81.28, 86.14 89.27 10/05/2016 09:21:43 81.27, 86.30 89.27 2.78 42
5 10/08/2016 04:06:08 -81.28, -14.85 89.66 10/08/2016 04:06:32 -81.27, -14.94 89.67 1.69 24
6 10/
